When you browse on this site, cookies collect data to enhance your experience and personalize the content and advertising you see.
Visit our Privacy Policy to learn more. By continuing to use the site, you agree to this use of cookies and data.
  • In Hungary
  • List of Countries
  • For 7 days
  • Water Temperature
  • Weather Map
  • News
  • Weather Widgets
  • user-avatar
    Login

    Hourly Weather Medvezhe

    Today, 22 January, Wednesday

    Time Temperature Precipitation Wind Pressure Humidity
    00:00 0°C° 0.6 mm 8 mps 737 mmHg 96%
    01:00 -1°C° 0.1 mm 8 mps 737 mmHg 91%
    02:00 -1°C° 0.1 mm 9 mps 738 mmHg 87%
    03:00 -1°C° 0 mm 8 mps 738 mmHg 84%
    04:00 -2°C° 0 mm 8 mps 738 mmHg 84%
    05:00 -3°C° 0 mm 7 mps 738 mmHg 84%
    06:00 -4°C° 0 mm 6 mps 738 mmHg 84%
    07:00 -4°C° 0 mm 6 mps 738 mmHg 84%
    08:00 -4°C° 0 mm 6 mps 738 mmHg 85%
    09:00 -3°C° 0 mm 6 mps 738 mmHg 86%
    10:00 -3°C° 0 mm 6 mps 737 mmHg 85%
    11:00 -3°C° 0 mm 6 mps 737 mmHg 83%
    12:00 -3°C° 0 mm 6 mps 737 mmHg 82%
    13:00 -2°C° 0 mm 5 mps 736 mmHg 82%
    14:00 -2°C° 0 mm 5 mps 736 mmHg 82%
    15:00 -2°C° 0 mm 4 mps 735 mmHg 82%
    16:00 -2°C° 0 mm 4 mps 735 mmHg 85%
    17:00 -2°C° 0 mm 4 mps 735 mmHg 89%
    18:00 -3°C° 0 mm 4 mps 734 mmHg 92%
    19:00 -3°C° 0.5 mm 4 mps 734 mmHg 93%
    20:00 -3°C° 0.5 mm 4 mps 734 mmHg 94%
    21:00 -3°C° 0.5 mm 4 mps 734 mmHg 94%
    22:00 -4°C° 0.1 mm 5 mps 735 mmHg 91%
    23:00 -5°C° 0.1 mm 5 mps 735 mmHg 88%

    Tomorrow, 23 January, Thursday

    Time Temperature Precipitation Wind Pressure Humidity
    00:00 -5°C° 0.1 mm 6 mps 735 mmHg 84%
    01:00 -6°C° 0 mm 6 mps 735 mmHg 85%
    02:00 -6°C° 0 mm 6 mps 736 mmHg 86%
    03:00 -6°C° 0 mm 5 mps 737 mmHg 87%
    04:00 -6°C° 0.1 mm 6 mps 737 mmHg 89%
    05:00 -6°C° 0.1 mm 6 mps 737 mmHg 90%
    06:00 -6°C° 0.1 mm 6 mps 737 mmHg 92%
    07:00 -6°C° 0.1 mm 6 mps 738 mmHg 87%
    08:00 -8°C° 0.1 mm 6 mps 739 mmHg 82%
    09:00 -8°C° 0.1 mm 7 mps 739 mmHg 77%
    10:00 -8°C° 0 mm 7 mps 740 mmHg 77%
    11:00 -8°C° 0 mm 7 mps 741 mmHg 78%
    12:00 -8°C° 0 mm 7 mps 741 mmHg 78%
    13:00 -9°C° 0 mm 7 mps 742 mmHg 76%
    14:00 -9°C° 0 mm 7 mps 742 mmHg 73%
    15:00 -9°C° 0 mm 7 mps 743 mmHg 70%
    16:00 -10°C° 0 mm 6 mps 743 mmHg 73%
    17:00 -10°C° 0 mm 6 mps 744 mmHg 75%
    18:00 -10°C° 0 mm 5 mps 744 mmHg 77%
    19:00 -11°C° 0 mm 5 mps 745 mmHg 78%
    20:00 -10°C° 0 mm 4 mps 745 mmHg 79%
    21:00 -9°C° 0 mm 3 mps 746 mmHg 79%
    22:00 -9°C° 0 mm 3 mps 746 mmHg 80%
    23:00 -9°C° 0 mm 3 mps 747 mmHg 80%

    Day after tomorrow, 24 January, Friday

    Time Temperature Precipitation Wind Pressure Humidity
    00:00 -10°C° 0 mm 3 mps 747 mmHg 81%
    01:00 -10°C° 0 mm 3 mps 748 mmHg 82%
    02:00 -10°C° 0 mm 3 mps 748 mmHg 84%
    03:00 -10°C° 0 mm 3 mps 749 mmHg 85%
    04:00 -10°C° 0 mm 3 mps 748 mmHg 87%
    05:00 -10°C° 0 mm 3 mps 748 mmHg 89%
    06:00 -10°C° 0 mm 3 mps 748 mmHg 91%
    07:00 -10°C° 0 mm 3 mps 748 mmHg 90%
    08:00 -10°C° 0 mm 3 mps 748 mmHg 89%
    09:00 -11°C° 0 mm 4 mps 748 mmHg 88%
    10:00 -10°C° 0 mm 4 mps 748 mmHg 87%
    11:00 -8°C° 0 mm 5 mps 747 mmHg 86%
    12:00 -8°C° 0 mm 6 mps 747 mmHg 84%
    13:00 -8°C° 0.1 mm 6 mps 746 mmHg 87%
    14:00 -7°C° 0.1 mm 7 mps 745 mmHg 90%
    15:00 -7°C° 0.1 mm 7 mps 744 mmHg 92%
    16:00 -6°C° 0.3 mm 7 mps 744 mmHg 93%
    17:00 -6°C° 0.3 mm 7 mps 743 mmHg 93%
    18:00 -6°C° 0.3 mm 7 mps 742 mmHg 94%
    19:00 -4°C° 0.3 mm 7 mps 742 mmHg 95%
    20:00 -4°C° 0.3 mm 7 mps 741 mmHg 96%
    21:00 -3°C° 0.3 mm 6 mps 741 mmHg 96%
    22:00 -2°C° 0.1 mm 6 mps 740 mmHg 96%
    23:00 -2°C° 0.1 mm 6 mps 740 mmHg 95%

    25 January, Saturday

    Time Temperature Precipitation Wind Pressure Humidity
    00:00 -1°C° 0.1 mm 6 mps 739 mmHg 95%
    01:00 -1°C° 0.1 mm 6 mps 739 mmHg 95%
    02:00 -1°C° 0.1 mm 6 mps 739 mmHg 95%
    03:00 0°C° 0.1 mm 5 mps 739 mmHg 95%
    04:00 0°C° 0.1 mm 5 mps 739 mmHg 94%
    05:00 0°C° 0.1 mm 5 mps 739 mmHg 94%
    06:00 0°C° 0.1 mm 5 mps 738 mmHg 94%
    07:00 0°C° 0.1 mm 5 mps 739 mmHg 95%
    08:00 -1°C° 0.1 mm 5 mps 739 mmHg 96%
    09:00 -1°C° 0.1 mm 5 mps 739 mmHg 97%
    10:00 -1°C° 0.2 mm 5 mps 739 mmHg 96%
    11:00 -1°C° 0.2 mm 5 mps 739 mmHg 95%
    12:00 -1°C° 0.2 mm 5 mps 739 mmHg 94%
    13:00 -1°C° 0 mm 5 mps 739 mmHg 92%
    14:00 -1°C° 0 mm 5 mps 739 mmHg 90%
    15:00 -1°C° 0 mm 5 mps 738 mmHg 88%
    16:00 -1°C° 0 mm 5 mps 738 mmHg 87%
    17:00 -2°C° 0 mm 6 mps 738 mmHg 87%
    18:00 -2°C° 0 mm 7 mps 737 mmHg 87%
    19:00 -2°C° 0.1 mm 7 mps 737 mmHg 85%
    20:00 -2°C° 0.1 mm 7 mps 737 mmHg 83%
    21:00 -2°C° 0.1 mm 7 mps 737 mmHg 80%
    22:00 -4°C° 0 mm 8 mps 738 mmHg 78%
    23:00 -4°C° 0 mm 8 mps 738 mmHg 76%

    26 January, Sunday

    Time Temperature Precipitation Wind Pressure Humidity
    00:00 -5°C° 0 mm 9 mps 739 mmHg 74%
    01:00 -5°C° 0 mm 8 mps 739 mmHg 76%
    02:00 -6°C° 0 mm 8 mps 740 mmHg 77%
    03:00 -6°C° 0 mm 7 mps 741 mmHg 78%
    04:00 -6°C° 0 mm 7 mps 742 mmHg 79%
    05:00 -6°C° 0 mm 7 mps 742 mmHg 79%
    06:00 -6°C° 0 mm 7 mps 743 mmHg 80%
    07:00 -6°C° 0 mm 7 mps 744 mmHg 80%
    08:00 -6°C° 0 mm 7 mps 745 mmHg 79%
    09:00 -6°C° 0 mm 7 mps 746 mmHg 79%
    10:00 -6°C° 0 mm 7 mps 747 mmHg 78%
    11:00 -6°C° 0 mm 7 mps 747 mmHg 78%
    12:00 -6°C° 0 mm 7 mps 748 mmHg 77%
    13:00 -5°C° 0 mm 6 mps 749 mmHg 77%
    14:00 -5°C° 0 mm 6 mps 750 mmHg 78%
    15:00 -5°C° 0 mm 6 mps 750 mmHg 78%
    16:00 -5°C° 0 mm 5 mps 751 mmHg 80%
    17:00 -5°C° 0 mm 4 mps 751 mmHg 83%
    18:00 -5°C° 0 mm 4 mps 752 mmHg 85%
    19:00 -5°C° 0 mm 4 mps 752 mmHg 86%
    20:00 -6°C° 0 mm 3 mps 753 mmHg 87%
    21:00 -6°C° 0 mm 3 mps 753 mmHg 88%
    22:00 -6°C° 0 mm 3 mps 753 mmHg 88%
    23:00 -6°C° 0 mm 3 mps 754 mmHg 89%

    27 January, Monday

    Time Temperature Precipitation Wind Pressure Humidity
    00:00 -6°C° 0 mm 3 mps 754 mmHg 89%
    01:00 -6°C° 0 mm 3 mps 754 mmHg 88%
    02:00 -5°C° 0 mm 2 mps 754 mmHg 87%
    03:00 -5°C° 0 mm 2 mps 754 mmHg 87%
    04:00 -5°C° 0 mm 2 mps 754 mmHg 85%
    05:00 -5°C° 0 mm 3 mps 754 mmHg 84%
    06:00 -5°C° 0 mm 3 mps 754 mmHg 83%
    07:00 -5°C° 0 mm 3 mps 754 mmHg 83%
    08:00 -5°C° 0 mm 4 mps 754 mmHg 84%
    09:00 -5°C° 0 mm 4 mps 754 mmHg 84%
    10:00 -4°C° 0 mm 4 mps 754 mmHg 83%
    11:00 -4°C° 0 mm 5 mps 754 mmHg 83%
    12:00 -4°C° 0 mm 5 mps 754 mmHg 82%
    13:00 -4°C° 0 mm 5 mps 753 mmHg 83%
    14:00 -4°C° 0 mm 5 mps 753 mmHg 84%
    15:00 -4°C° 0 mm 5 mps 752 mmHg 85%
    16:00 -4°C° 0 mm 5 mps 752 mmHg 87%
    17:00 -4°C° 0 mm 5 mps 752 mmHg 88%
    18:00 -4°C° 0 mm 5 mps 752 mmHg 90%
    19:00 -4°C° 0 mm 5 mps 751 mmHg 91%
    20:00 -4°C° 0 mm 5 mps 751 mmHg 92%
    21:00 -4°C° 0 mm 5 mps 751 mmHg 94%
    22:00 -4°C° 0.1 mm 5 mps 750 mmHg 94%
    23:00 -4°C° 0.1 mm 5 mps 750 mmHg 95%
    Show more